Hettinger, ND

8:22 AM MST on February 07, 2016 (GMT -0700)
Hettinger Municipal

Weather History for KHEI - February, 2013

Change the Weather History Date:

Wednesday, February 6, 2013

  Actual Average Record
Temperature  
Mean Temperature 34 °F -  
Max Temperature 45 °F 30 °F - ()
Min Temperature 23 °F 8 °F - ()
Degree Days  
Heating Degree Days 31 46  
Month to date heating degree days 209 279  
Since 1 July heating degree days 5097 5355  
Moisture  
Dew Point 24 °F    
Average Humidity 76    
Maximum Humidity 96    
Minimum Humidity 49    
Precipitation  
Precipitation 0.00 in 0.02 in - ()
Month to date precipitation 0.03 0.12  
Year to date precipitation 0.06 0.43  
Sea Level Pressure  
Sea Level Pressure 29.90 in    
Wind  
Wind Speed 9 mph (WNW)    
Max Wind Speed 29 mph    
Max Gust Speed 33 mph    
Visibility 8 miles    
Events Fog    
T = Trace of Precipitation, MM = Missing Value Source: NWS Daily Summary

Daily Weather History Graph

Daily Weather History Graph

Search for Another Location

Airport or City:

Trip Planner

Search our weather history database for the weather conditions in past years. The results will help you decide how hot, cold, wet, or windy it might be!

Date:

Astronomy

Feb. 06, 2013 Rise Set
Actual Time 7:06 AM MST 5:04 PM MST
Civil Twilight 6:34 AM MST 5:35 PM MST
Nautical Twilight 5:59 AM MST 6:10 PM MST
Astronomical Twilight 5:24 AM MST 6:45 PM MST
Moon 3:58 AM MST (2/6) 1:18 PM MST (2/6)
Length of Visible Light 11h 00m
Length of Day
9h 57m
Waning Crescent, 16% of the Moon is Illuminated
Feb 6
Waning Crescent
Feb 10
New
Feb 17
First Quarter
Feb 25
Full
Mar 4
Last Quarter

Hourly Weather History & Observations

Time (MST) Temp. Windchill Dew Point Humidity Pressure Visibility Wind Dir Wind Speed Gust Speed Precip Events Conditions
12:53 AM 30.0 °F 23.2 °F 24.1 °F 79% 29.80 in 10.0 mi SSE 6.9 mph - N/A   Clear
1:53 AM 28.9 °F 25.2 °F 24.1 °F 82% 29.80 in 10.0 mi SSE 3.5 mph - N/A   Clear
2:53 AM 28.0 °F - 23.0 °F 81% 29.78 in 10.0 mi Calm Calm - N/A   Clear
3:53 AM 26.1 °F - 23.0 °F 88% 29.77 in 10.0 mi Calm Calm - N/A   Clear
4:53 AM 26.1 °F 21.9 °F 21.9 °F 84% 29.78 in 10.0 mi WSW 3.5 mph - N/A   Clear
5:53 AM 26.1 °F 21.9 °F 21.0 °F 81% 29.79 in 10.0 mi West 3.5 mph - N/A   Clear
6:53 AM 28.9 °F 20.4 °F 24.1 °F 82% 29.80 in 10.0 mi NW 9.2 mph - N/A   Clear
7:53 AM 30.9 °F 23.5 °F 26.1 °F 82% 29.81 in 10.0 mi West 8.1 mph - N/A   Clear
8:53 AM 35.1 °F 26.4 °F 26.1 °F 70% 29.83 in 10.0 mi WNW 12.7 mph - N/A   Clear
9:53 AM 39.9 °F 32.5 °F 28.0 °F 63% 29.84 in 10.0 mi WNW 12.7 mph - N/A   Clear
10:53 AM 43.0 °F 35.4 °F 28.0 °F 56% 29.85 in 10.0 mi WNW 16.1 mph - N/A   Partly Cloudy
11:53 AM 45.0 °F 36.6 °F 27.0 °F 49% 29.85 in 10.0 mi WNW 21.9 mph 28.8 mph N/A   Clear
12:53 PM 45.0 °F 36.6 °F 26.1 °F 48% 29.85 in 10.0 mi WNW 21.9 mph 33.4 mph N/A   Clear
1:53 PM 45.0 °F 36.4 °F 27.0 °F 49% 29.87 in 10.0 mi WNW 23.0 mph 29.9 mph N/A   Clear
2:53 PM 43.0 °F 34.5 °F 27.0 °F 53% 29.90 in 10.0 mi WNW 19.6 mph 26.5 mph N/A   Clear
3:53 PM 42.1 °F 34.9 °F 28.0 °F 58% 29.93 in 10.0 mi WNW 13.8 mph - N/A   Clear
4:53 PM 36.0 °F 29.6 °F 27.0 °F 70% 29.96 in 10.0 mi WNW 8.1 mph - N/A   Clear
5:53 PM 30.0 °F 23.2 °F 25.0 °F 82% 29.99 in 10.0 mi WNW 6.9 mph - N/A   Clear
6:53 PM 28.9 °F 25.2 °F 24.1 °F 82% 30.01 in 10.0 mi WNW 3.5 mph - N/A   Clear
7:53 PM 28.9 °F 23.9 °F 24.1 °F 82% 30.02 in 10.0 mi NNW 4.6 mph - N/A   Clear
8:53 PM 25.0 °F - 21.9 °F 88% 30.04 in 10.0 mi Calm Calm - N/A   Clear
9:53 PM 24.1 °F - 19.9 °F 84% 30.04 in 10.0 mi Calm Calm - N/A   Clear
10:48 PM 23.0 °F 13.1 °F 21.2 °F 93% 29.98 in 2.0 mi ENE 9.2 mph - N/A   Partly Cloudy
10:51 PM 23.0 °F 14.7 °F 21.2 °F 93% 29.98 in 1.0 mi ENE 6.9 mph - N/A   Mist
10:53 PM 23.0 °F 14.7 °F 21.0 °F 92% 30.06 in 0.8 mi ENE 6.9 mph - N/A   Mist
11:08 PM 23.0 °F 13.1 °F 21.2 °F 93% 29.99 in 0.2 mi East 9.2 mph - N/A Fog Light Freezing Fog
11:53 PM 24.1 °F - 21.9 °F 91% 30.08 in 0.2 mi Calm Calm - N/A Fog Light Freezing Fog